,,,PA_Meas_PMT16A,,PR_Meas_QMR101_102,,RH_Meas_QMH101,,SR_Meas_QMS101,,TA_Meas_QMH101,,GenWind,,GenWind,
date,time,status,PA,status,PR,status,RH,status,SR,status,TA,status,DirAvg,status,SpdAvg,
2008-12-04, 00:00:04,VALID,1003.87,VALID,0,VALID,93.3012,VALID,0,VALID,24.599,VALID,226,VALID,0,
2008-12-04, 00:01:04,VALID,1003.87,VALID,0,VALID,93.408,VALID,0,VALID,24.599,VALID,226,VALID,0,
2008-12-04, 00:02:04,VALID,1003.89,VALID,0,VALID,93.5224,VALID,0,VALID,24.5796,VALID,226,VALID,0,
2008-12-04, 00:03:04,VALID,1003.9,VALID,0,VALID,93.5911,VALID,0,VALID,24.5796,VALID,226,VALID,0.0664063,
2008-12-04, 00:04:04,VALID,1003.89,VALID,0,VALID,93.5682,VALID,0,VALID,24.562,VALID,226,VALID,0.201172,
2008-12-04, 00:05:04,VALID,1003.9,VALID,0,VALID,93.5682,VALID,0,VALID,24.5425,VALID,226,VALID,0.317969,
2008-12-04, 00:06:04,VALID,1003.87,VALID,0,VALID,93.6064,VALID,0,VALID,24.4822,VALID,226,VALID,0.313281,
2008-12-04, 00:07:04,VALID,1003.87,VALID,0,VALID,93.6598,VALID,0,VALID,24.4433,VALID,226,VALID,0.341016,
2008-12-04, 00:08:04,VALID,1003.88,VALID,0,VALID,93.7971,VALID,0,VALID,24.4238,VALID,226,VALID,0,
2008-12-04, 00:09:04,VALID,1003.88,VALID,0,VALID,94.1099,VALID,0,VALID,24.4822,VALID,226,VALID,0,
2008-12-04, 00:10:04,VALID,1003.87,VALID,0,VALID,94.1328,VALID,0,VALID,24.5017,VALID,226,VALID,0,
2008-12-04, 00:11:04,VALID,1003.88,VALID,0,VALID,94.1022,VALID,0,VALID,24.5212,VALID,226,VALID,0,
2008-12-04, 00:12:04,VALID,1003.86,VALID,0,VALID,93.9191,VALID,0,VALID,24.4822,VALID,226,VALID,0,
2008-12-04, 00:13:04,VALID,1003.91,VALID,0,VALID,93.8505,VALID,0,VALID,24.4451,VALID,226,VALID,0,
2008-12-04, 00:14:04,VALID,1003.9,VALID,0,VALID,93.7742,VALID,0,VALID,24.3867,VALID,226,VALID,0,
2008-12-04, 00:15:04,VALID,1003.94,VALID,0,VALID,93.7208,VALID,0,VALID,24.307,VALID,226,VALID,0,
2008-12-04, 00:16:04,VALID,1003.91,VALID,0,VALID,93.8352,VALID,0,VALID,24.3088,VALID,226,VALID,0.240234,
2008-12-04, 00:17:04,VALID,1003.89,VALID,0,VALID,93.9649,VALID,0,VALID,24.3088,VALID,226,VALID,0.376563,
2008-12-04, 00:18:04,VALID,1003.91,VALID,0,VALID,93.9878,VALID,0,VALID,24.2894,VALID,226,VALID,0.353516,
2008-12-04, 00:19:04,VALID,1003.89,VALID,0,VALID,94.0717,VALID,0,VALID,24.2894,VALID,226,VALID,0.390234,
2008-12-04, 00:20:04,VALID,1003.85,VALID,0,VALID,94.2014,VALID,0,VALID,24.2894,VALID,226,VALID,0.401563,
2008-12-04, 00:21:04,VALID,1003.84,VALID,0,VALID,94.1404,VALID,0,VALID,24.2486,VALID,226,VALID,0.36875,
2008-12-04, 00:22:04,VALID,1003.81,VALID,0,VALID,94.1404,VALID,0,VALID,24.231,VALID,226,VALID,0.426562,
2008-12-04, 00:23:04,VALID,1003.79,VALID,0,VALID,94.1251,VALID,0,VALID,24.1902,VALID,226,VALID,0.439063,
2008-12-04, 00:24:04,VALID,1003.81,VALID,0,VALID,94.148,VALID,0,VALID,24.1726,VALID,226,VALID,0.283594,
2008-12-04, 00:25:04,VALID,1003.81,VALID,0,VALID,94.209,VALID,0,VALID,24.1513,VALID,226,VALID,0.303906,
2008-12-04, 00:26:04,VALID,1003.81,VALID,0,VALID,94.1633,VALID,0.100563,VALID,24.1123,VALID,226,VALID,0.162109,
2008-12-04, 00:27:04,VALID,1003.81,VALID,0,VALID,94.2396,VALID,0,VALID,24.1123,VALID,226,VALID,0,
2008-12-04, 00:28:04,VALID,1003.8,VALID,0,VALID,94.2243,VALID,0,VALID,24.0734,VALID,226,VALID,0,
2008-12-04, 00:29:04,VALID,1003.81,VALID,0,VALID,94.3235,VALID,0,VALID,24.0929,VALID,226,VALID,0,
2008-12-04, 00:30:04,VALID,1003.77,VALID,0,VALID,94.3769,VALID,0,VALID,24.0929,VALID,225,VALID,0.171875,
2008-12-04, 00:31:04,VALID,1003.81,VALID,0,VALID,94.415,VALID,0,VALID,24.0929,VALID,225,VALID,0.211328,
2008-12-04, 00:32:04,VALID,1003.77,VALID,0,VALID,94.4913,VALID,0,VALID,24.091,VALID,225,VALID,0,
2008-12-04, 00:33:04,VALID,1003.74,VALID,0,VALID,94.5523,VALID,0,VALID,24.1513,VALID,225,VALID,0,
2008-12-04, 00:34:04,VALID,1003.76,VALID,0,VALID,94.6744,VALID,0,VALID,24.2097,VALID,225,VALID,0,
2008-12-04, 00:35:04,VALID,1003.72,VALID,0,VALID,94.7125,VALID,0,VALID,24.2097,VALID,225,VALID,0,
2008-12-04, 00:36:04,VALID,1003.68,VALID,0,VALID,94.682,VALID,0,VALID,24.2078,VALID,225,VALID,0,
2008-12-04, 00:37:04,VALID,1003.69,VALID,0,VALID,94.6439,VALID,0,VALID,24.1884,VALID,225,VALID,0,
2008-12-04, 00:38:04,VALID,1003.65,VALID,0,VALID,94.6057,VALID,0,VALID,24.2097,VALID,225,VALID,0,
2008-12-04, 00:39:04,VALID,1003.64,VALID,0,VALID,94.5142,VALID,0.100563,VALID,24.1707,VALID,225,VALID,0,
2008-12-04, 00:40:04,VALID,1003.61,VALID,0,VALID,94.5142,VALID,0,VALID,24.13,VALID,225,VALID,0,
2008-12-04, 00:41:04,VALID,1003.63,VALID,0,VALID,94.5295,VALID,0,VALID,24.1105,VALID,225,VALID,0,
2008-12-04, 00:42:04,VALID,1003.62,VALID,0,VALID,94.5371,VALID,0,VALID,24.0929,VALID,225,VALID,0,
2008-12-04, 00:43:04,VALID,1003.62,VALID,0,VALID,94.6057,VALID,0,VALID,24.091,VALID,225,VALID,0.0621094,
2008-12-04, 00:44:04,VALID,1003.6,VALID,0,VALID,94.6286,VALID,0,VALID,24.1123,VALID,225,VALID,0,
2008-12-04, 00:45:04,VALID,1003.63,VALID,0,VALID,94.6668,VALID,0,VALID,24.1318,VALID,225,VALID,0.15,
2008-12-04, 00:46:04,VALID,1003.61,VALID,0,VALID,94.7507,VALID,0.100563,VALID,24.1707,VALID,225,VALID,0.25,
2008-12-04, 00:47:04,VALID,1003.6,VALID,0,VALID,94.8041,VALID,0,VALID,24.2097,VALID,225,VALID,0.155469,
2008-12-04, 00:48:04,VALID,1003.61,VALID,0,VALID,94.8651,VALID,0,VALID,24.2486,VALID,225,VALID,0,
2008-12-04, 00:49:04,VALID,1003.6,VALID,0,VALID,94.766,VALID,0,VALID,24.2291,VALID,225,VALID,0,
2008-12-04, 00:50:04,VALID,1003.6,VALID,0,VALID,94.7202,VALID,0,VALID,24.2097,VALID,225,VALID,0,
2008-12-04, 00:51:04,VALID,1003.59,VALID,0,VALID,94.8346,VALID,0.100563,VALID,24.2291,VALID,225,VALID,0,
2008-12-04, 00:52:04,VALID,1003.6,VALID,0,VALID,94.8194,VALID,0,VALID,24.2273,VALID,225,VALID,0,
2008-12-04, 00:53:04,VALID,1003.54,VALID,0,VALID,94.7125,VALID,0,VALID,24.2291,VALID,225,VALID,0,
2008-12-04, 00:54:04,VALID,1003.53,VALID,0,VALID,94.6973,VALID,0,VALID,24.1884,VALID,225,VALID,0,
2008-12-04, 00:55:04,VALID,1003.5,VALID,0,VALID,94.682,VALID,0,VALID,24.2097,VALID,225,VALID,0,
2008-12-04, 00:56:04,VALID,1003.47,VALID,0,VALID,94.6591,VALID,0,VALID,24.1689,VALID,225,VALID,0,
2008-12-04, 00:57:04,VALID,1003.46,VALID,0,VALID,94.6591,VALID,0,VALID,24.1494,VALID,225,VALID,0,
2008-12-04, 00:58:04,VALID,1003.44,VALID,0,VALID,94.6591,VALID,0.100563,VALID,24.1494,VALID,225,VALID,0,
2008-12-04, 00:59:04,VALID,1003.44,VALID,0,VALID,94.766,VALID,0,VALID,24.1707,VALID,225,VALID,0,
2008-12-04, 01:00:04,VALID,1003.44,VALID,0,VALID,94.7202,VALID,0,VALID,24.1902,VALID,225,VALID,0,
2008-12-04, 01:01:04,VALID,1003.42,VALID,0,VALID,94.7202,VALID,0,VALID,24.1707,VALID,225,VALID,0,
2008-12-04, 01:02:04,VALID,1003.45,VALID,0,VALID,94.6515,VALID,0,VALID,24.13,VALID,225,VALID,0,
2008-12-04, 01:03:04,VALID,1003.43,VALID,0,VALID,94.5371,VALID,0,VALID,24.0929,VALID,225,VALID,0,
2008-12-04, 01:04:04,VALID,1003.42,VALID,0,VALID,94.5371,VALID,0,VALID,24.0326,VALID,225,VALID,0,
2008-12-04, 01:05:04,VALID,1003.42,VALID,0,VALID,94.6134,VALID,0,VALID,24.0539,VALID,225,VALID,0,
2008-12-04, 01:06:04,VALID,1003.41,VALID,0,VALID,94.6668,VALID,0.100563,VALID,24.0734,VALID,225,VALID,0,
2008-12-04, 01:07:04,VALID,1003.44,VALID,0,VALID,94.6744,VALID,0.100563,VALID,24.0308,VALID,225,VALID,0,
2008-12-04, 01:08:04,VALID,1003.42,VALID,0,VALID,94.6668,VALID,0.100563,VALID,24.0521,VALID,225,VALID,0,
2008-12-04, 01:09:04,VALID,1003.43,VALID,0,VALID,94.6591,VALID,0,VALID,24.0326,VALID,139,VALID,0.318359,
2008-12-04, 01:10:04,VALID,1003.43,VALID,0,VALID,94.6897,VALID,0,VALID,24.0363,VALID,130,VALID,0.422266,
2008-12-04, 01:11:04,VALID,1003.43,VALID,0,VALID,94.6973,VALID,0,VALID,24.0168,VALID,130,VALID,0.269531,
2008-12-04, 01:12:04,VALID,1003.42,VALID,0,VALID,94.6973,VALID,0,VALID,24.0168,VALID,130,VALID,0.210547,
2008-12-04, 01:13:04,VALID,1003.47,VALID,0,VALID,94.7431,VALID,0,VALID,23.9955,VALID,130,VALID,0.365234,
2008-12-04, 01:14:04,VALID,1003.49,VALID,0,VALID,94.7431,VALID,0,VALID,23.9973,VALID,130,VALID,0.310156,
2008-12-04, 01:15:04,VALID,1003.48,VALID,0,VALID,94.7202,VALID,0,VALID,23.9761,VALID,130,VALID,0.305469,
2008-12-04, 01:16:04,VALID,1003.5,VALID,0,VALID,94.6744,VALID,0,VALID,23.9371,VALID,130,VALID,0.18125,
2008-12-04, 01:17:04,VALID,1003.47,VALID,0,VALID,94.7125,VALID,0,VALID,23.9371,VALID,130,VALID,0.328125,
2008-12-04, 01:18:04,VALID,1003.45,VALID,0,VALID,94.7507,VALID,0,VALID,23.9584,VALID,130,VALID,0.228516,
2008-12-04, 01:19:04,VALID,1003.44,VALID,0,VALID,94.7736,VALID,0,VALID,23.9389,VALID,130,VALID,0.00742187,
2008-12-04, 01:20:04,VALID,1003.44,VALID,0,VALID,94.8194,VALID,0,VALID,23.9177,VALID,130,VALID,0,
2008-12-04, 01:21:04,VALID,1003.44,VALID,0,VALID,94.8956,VALID,0,VALID,23.9566,VALID,130,VALID,0,
2008-12-04, 01:22:04,VALID,1003.41,VALID,0,VALID,94.9567,VALID,0,VALID,24.0168,VALID,130,VALID,0.176563,
2008-12-04, 01:23:04,VALID,1003.36,VALID,0,VALID,94.9567,VALID,0,VALID,24.015,VALID,130,VALID,0.208594,
2008-12-04, 01:24:04,VALID,1003.36,VALID,0,VALID,94.9109,VALID,0,VALID,24.0363,VALID,130,VALID,0.130859,
2008-12-04, 01:25:04,VALID,1003.35,VALID,0,VALID,94.8728,VALID,0,VALID,24.0345,VALID,126,VALID,0.481641,
2008-12-04, 01:26:04,VALID,1003.33,VALID,0,VALID,94.9719,VALID,0,VALID,24.0345,VALID,347,VALID,0.291797,
2008-12-04, 01:27:04,VALID,1003.28,VALID,0,VALID,94.949,VALID,0,VALID,24.0132,VALID,347,VALID,0,
2008-12-04, 01:28:04,VALID,1003.27,VALID,0,VALID,94.9948,VALID,0,VALID,24.0132,VALID,347,VALID,0.217187,
2008-12-04, 01:29:04,VALID,1003.25,VALID,0,VALID,95.0253,VALID,0.100563,VALID,24.0521,VALID,347,VALID,0.428906,
2008-12-04, 01:30:04,VALID,1003.26,VALID,0,VALID,94.9643,VALID,0,VALID,24.0716,VALID,347,VALID,0.109375,
2008-12-04, 01:31:04,VALID,1003.19,VALID,0,VALID,94.9414,VALID,0.100563,VALID,24.0521,VALID,347,VALID,0.492578,
2008-12-04, 01:32:04,VALID,1003.2,VALID,0,VALID,94.9338,VALID,0,VALID,24.0326,VALID,347,VALID,0,
2008-12-04, 01:33:04,VALID,1003.21,VALID,0,VALID,94.8041,VALID,0,VALID,24.015,VALID,347,VALID,0.288281,
2008-12-04, 01:34:04,VALID,1003.22,VALID,0,VALID,94.7202,VALID,0,VALID,23.9353,VALID,347,VALID,0,
2008-12-04, 01:35:04,VALID,1003.21,VALID,0,VALID,94.7278,VALID,0,VALID,23.9371,VALID,347,VALID,0,
2008-12-04, 01:36:04,VALID,1003.18,VALID,0,VALID,94.766,VALID,0,VALID,23.8964,VALID,347,VALID,0,
2008-12-04, 01:37:04,VALID,1003.2,VALID,0,VALID,94.7736,VALID,0.100563,VALID,23.8982,VALID,347,VALID,0,
2008-12-04, 01:38:04,VALID,1003.17,VALID,0,VALID,94.8041,VALID,0,VALID,23.8982,VALID,347,VALID,0,
2008-12-04, 01:39:04,VALID,1003.14,VALID,0,VALID,94.888,VALID,0,VALID,23.9371,VALID,347,VALID,0,
2008-12-04, 01:40:04,VALID,1003.1,VALID,0,VALID,94.9109,VALID,0.100563,VALID,23.9371,VALID,347,VALID,0,
2008-12-04, 01:41:04,VALID,1003.08,VALID,0,VALID,94.8651,VALID,0,VALID,23.8964,VALID,347,VALID,0,
2008-12-04, 01:42:04,VALID,1003.05,VALID,0,VALID,94.8804,VALID,0,VALID,23.8982,VALID,347,VALID,0,
2008-12-04, 01:43:04,VALID,1002.98,VALID,0,VALID,94.8804,VALID,0.100563,VALID,23.8769,VALID,347,VALID,0,
2008-12-04, 01:44:04,VALID,1002.96,VALID,0,VALID,94.8422,VALID,0.100563,VALID,23.8575,VALID,347,VALID,0,
2008-12-04, 01:45:04,VALID,1002.95,VALID,0,VALID,94.949,VALID,0,VALID,23.8787,VALID,347,VALID,0.609766,
2008-12-04, 01:46:04,VALID,1002.93,VALID,0,VALID,94.949,VALID,0.100563,VALID,23.8787,VALID,347,VALID,0.560547,
2008-12-04, 01:47:04,VALID,1002.9,VALID,0,VALID,94.9872,VALID,0.100563,VALID,23.8787,VALID,347,VALID,0.340234,
2008-12-04, 01:48:04,VALID,1002.9,VALID,0,VALID,94.9719,VALID,0.100563,VALID,23.8575,VALID,347,VALID,0.310547,
2008-12-04, 01:49:04,VALID,1002.87,VALID,0,VALID,95.0711,VALID,0.100563,VALID,23.8769,VALID,347,VALID,0.2625,
2008-12-04, 01:50:04,VALID,1002.85,VALID,0,VALID,95.0787,VALID,0,VALID,23.8982,VALID,347,VALID,0.234375,
2008-12-04, 01:51:04,VALID,1002.85,VALID,0,VALID,95.0558,VALID,0,VALID,23.8769,VALID,347,VALID,0.296484,
2008-12-04, 01:52:04,VALID,1002.83,VALID,0,VALID,95.0177,VALID,0,VALID,23.8575,VALID,347,VALID,0.239063,
2008-12-04, 01:53:04,VALID,1002.86,VALID,0,VALID,94.9948,VALID,0.100563,VALID,23.838,VALID,347,VALID,0.0800781,
2008-12-04, 01:54:04,VALID,1002.87,VALID,0,VALID,95.0253,VALID,0,VALID,23.8575,VALID,347,VALID,0.0449219,
2008-12-04, 01:55:04,VALID,1002.9,VALID,0,VALID,95.0253,VALID,0.100563,VALID,23.8575,VALID,347,VALID,0,
2008-12-04, 01:56:04,VALID,1002.93,VALID,0,VALID,95.0101,VALID,0,VALID,23.8593,VALID,347,VALID,0.103125,
2008-12-04, 01:57:04,VALID,1002.93,VALID,0,VALID,95.0177,VALID,0.100563,VALID,23.8593,VALID,347,VALID,0,
2008-12-04, 01:58:04,VALID,1002.94,VALID,0,VALID,95.0482,VALID,0,VALID,23.838,VALID,347,VALID,0,
2008-12-04, 01:59:04,VALID,1002.93,VALID,0,VALID,95.0482,VALID,0,VALID,23.8787,VALID,347,VALID,0,
2008-12-04, 02:00:04,VALID,1002.96,VALID,0,VALID,95.0635,VALID,0.100563,VALID,23.8575,VALID,347,VALID,0,
2008-12-04, 02:01:04,VALID,1002.94,VALID,0,VALID,95.0635,VALID,0.100563,VALID,23.8769,VALID,347,VALID,0,
2008-12-04, 02:02:04,VALID,1002.93,VALID,0,VALID,95.0711,VALID,0.100563,VALID,23.8575,VALID,347,VALID,0,
2008-12-04, 02:03:04,VALID,1002.95,VALID,0,VALID,95.1474,VALID,0.100563,VALID,23.9159,VALID,347,VALID,0,
2008-12-04, 02:04:04,VALID,1002.94,VALID,0,VALID,95.2084,VALID,0.100563,VALID,23.953,VALID,347,VALID,0,
2008-12-04, 02:05:04,VALID,1002.93,VALID,0,VALID,95.2542,VALID,0.100563,VALID,24.0326,VALID,346,VALID,0.467187,
2008-12-04, 02:06:04,VALID,1002.93,VALID,0,VALID,95.2771,VALID,0.100563,VALID,24.0308,VALID,348,VALID,0.531641,
2008-12-04, 02:07:04,VALID,1002.96,VALID,0,VALID,95.2542,VALID,0,VALID,24.0716,VALID,348,VALID,0.646094,
2008-12-04, 02:08:04,VALID,1002.93,VALID,0,VALID,95.1932,VALID,0.100563,VALID,24.0929,VALID,347,VALID,0.560156,
2008-12-04, 02:09:04,VALID,1002.92,VALID,0,VALID,95.1474,VALID,0.100563,VALID,24.091,VALID,349,VALID,0.548047,
2008-12-04, 02:10:04,VALID,1002.92,VALID,0,VALID,95.1245,VALID,0,VALID,24.1123,VALID,347,VALID,0.519141,
2008-12-04, 02:11:04,VALID,1002.91,VALID,0,VALID,95.1093,VALID,0,VALID,24.1123,VALID,347,VALID,0.41875,
2008-12-04, 02:12:04,VALID,1002.93,VALID,0,VALID,95.1093,VALID,0.100563,VALID,24.1105,VALID,347,VALID,0.250391,
2008-12-04, 02:13:04,VALID,1002.9,VALID,0,VALID,95.0558,VALID,0,VALID,24.1105,VALID,347,VALID,0.127344,
2008-12-04, 02:14:04,VALID,1002.89,VALID,0,VALID,95.033,VALID,0,VALID,24.091,VALID,347,VALID,0,
2008-12-04, 02:15:04,VALID,1002.87,VALID,0,VALID,95.0101,VALID,0,VALID,24.1123,VALID,347,VALID,0,
2008-12-04, 02:16:04,VALID,1002.88,VALID,0,VALID,95.0024,VALID,0,VALID,24.091,VALID,347,VALID,0,
2008-12-04, 02:17:04,VALID,1002.88,VALID,0,VALID,94.949,VALID,0,VALID,24.0716,VALID,347,VALID,0,
2008-12-04, 02:18:04,VALID,1002.85,VALID,0,VALID,94.9414,VALID,0.100563,VALID,24.0734,VALID,347,VALID,0,
2008-12-04, 02:19:04,VALID,1002.83,VALID,0,VALID,94.9185,VALID,0,VALID,24.0539,VALID,347,VALID,0,
2008-12-04, 02:20:04,VALID,1002.82,VALID,0,VALID,94.9338,VALID,0,VALID,24.0132,VALID,347,VALID,0,
2008-12-04, 02:21:04,VALID,1002.82,VALID,0,VALID,94.9185,VALID,0,VALID,24.0345,VALID,347,VALID,0,
2008-12-04, 02:22:04,VALID,1002.83,VALID,0,VALID,94.9338,VALID,0,VALID,24.015,VALID,347,VALID,0,
2008-12-04, 02:23:04,VALID,1002.81,VALID,0,VALID,94.9109,VALID,0,VALID,24.015,VALID,347,VALID,0,
2008-12-04, 02:24:04,VALID,1002.79,VALID,0,VALID,94.9185,VALID,0,VALID,24.0345,VALID,347,VALID,0,
2008-12-04, 02:25:04,VALID,1002.79,VALID,0,VALID,94.9719,VALID,0,VALID,24.0539,VALID,347,VALID,0,
2008-12-04, 02:26:04,VALID,1002.79,VALID,0,VALID,94.9643,VALID,0,VALID,24.0132,VALID,347,VALID,0,
2008-12-04, 02:27:04,VALID,1002.75,VALID,0,VALID,95.1093,VALID,0,VALID,24.1123,VALID,347,VALID,0,
2008-12-04, 02:28:04,VALID,1002.72,VALID,0,VALID,95.0482,VALID,0.100563,VALID,24.1318,VALID,347,VALID,0,
2008-12-04, 02:29:04,VALID,1002.71,VALID,0,VALID,94.9796,VALID,0,VALID,24.0929,VALID,347,VALID,0,
2008-12-04, 02:30:04,VALID,1002.69,VALID,0,VALID,94.9796,VALID,0,VALID,24.0716,VALID,347,VALID,0,
2008-12-04, 02:31:04,VALID,1002.67,VALID,0,VALID,94.949,VALID,0,VALID,24.0326,VALID,347,VALID,0,
2008-12-04, 02:32:04,VALID,1002.68,VALID,0,VALID,94.9185,VALID,0,VALID,24.0539,VALID,347,VALID,0,
2008-12-04, 02:33:04,VALID,1002.7,VALID,0,VALID,94.888,VALID,0,VALID,24.0132,VALID,347,VALID,0.0863281,
2008-12-04, 02:34:04,VALID,1002.68,VALID,0,VALID,94.9567,VALID,0.100563,VALID,24.015,VALID,347,VALID,0.255469,
2008-12-04, 02:35:04,VALID,1002.66,VALID,0,VALID,94.949,VALID,0,VALID,23.9742,VALID,347,VALID,0.327734,
2008-12-04, 02:36:04,VALID,1002.67,VALID,0,VALID,94.9719,VALID,0,VALID,23.9955,VALID,347,VALID,0.162891,
2008-12-04, 02:37:04,VALID,1002.63,VALID,0,VALID,95.0024,VALID,0,VALID,23.9937,VALID,347,VALID,0.0800781,
2008-12-04, 02:38:04,VALID,1002.61,VALID,0,VALID,95.033,VALID,0,VALID,24.0132,VALID,347,VALID,0.0191406,
2008-12-04, 02:39:04,VALID,1002.58,VALID,0,VALID,95.0711,VALID,0,VALID,24.0539,VALID,347,VALID,0.157813,
2008-12-04, 02:40:04,VALID,1002.57,VALID,0,VALID,95.0787,VALID,0,VALID,24.0539,VALID,347,VALID,0.0492188,
2008-12-04, 02:41:04,VALID,1002.56,VALID,0,VALID,95.0406,VALID,0,VALID,24.0345,VALID,347,VALID,0,
2008-12-04, 02:42:04,VALID,1002.55,VALID,0,VALID,95.0253,VALID,0,VALID,24.0539,VALID,347,VALID,0,
2008-12-04, 02:43:04,VALID,1002.56,VALID,0,VALID,95.0101,VALID,0,VALID,24.0752,VALID,347,VALID,0,
2008-12-04, 02:44:04,VALID,1002.53,VALID,0,VALID,94.9872,VALID,0.100563,VALID,24.0345,VALID,347,VALID,0,
2008-12-04, 02:45:04,VALID,1002.53,VALID,0,VALID,94.9796,VALID,0.100563,VALID,23.9937,VALID,347,VALID,0,
2008-12-04, 02:46:04,VALID,1002.49,VALID,0,VALID,94.9719,VALID,0.100563,VALID,23.9937,VALID,347,VALID,0,
2008-12-04, 02:47:04,VALID,1002.51,VALID,0,VALID,94.9643,VALID,0,VALID,23.9937,VALID,347,VALID,0,
2008-12-04, 02:48:04,VALID,1002.51,VALID,0,VALID,94.949,VALID,0,VALID,23.9937,VALID,347,VALID,0,
2008-12-04, 02:49:04,VALID,1002.51,VALID,0,VALID,95.0024,VALID,0,VALID,23.9955,VALID,347,VALID,0,
2008-12-04, 02:50:04,VALID,1002.46,VALID,0,VALID,94.9796,VALID,0,VALID,23.9937,VALID,347,VALID,0,
2008-12-04, 02:51:04,VALID,1002.45,VALID,0,VALID,94.9414,VALID,0,VALID,23.9761,VALID,347,VALID,0,
2008-12-04, 02:52:04,VALID,1002.47,VALID,0,VALID,94.8804,VALID,0,VALID,23.9371,VALID,347,VALID,0,
2008-12-04, 02:53:04,VALID,1002.46,VALID,0,VALID,94.8956,VALID,0,VALID,23.8964,VALID,347,VALID,0,
2008-12-04, 02:54:04,VALID,1002.48,VALID,0,VALID,94.9109,VALID,0.100563,VALID,23.9177,VALID,347,VALID,0,
2008-12-04, 02:55:04,VALID,1002.49,VALID,0,VALID,94.9414,VALID,0.100563,VALID,23.9159,VALID,347,VALID,0,
2008-12-04, 02:56:04,VALID,1002.49,VALID,0,VALID,95.0253,VALID,0,VALID,23.9353,VALID,347,VALID,0,
2008-12-04, 02:57:04,VALID,1002.51,VALID,0,VALID,95.0635,VALID,0,VALID,23.9353,VALID,347,VALID,0.078125,
2008-12-04, 02:58:04,VALID,1002.5,VALID,0,VALID,95.0787,VALID,0,VALID,23.9742,VALID,347,VALID,0.0335938,
2008-12-04, 02:59:04,VALID,1002.49,VALID,0,VALID,95.0787,VALID,0.100563,VALID,23.9761,VALID,347,VALID,0,
2008-12-04, 03:00:04,VALID,1002.49,VALID,0,VALID,95.1321,VALID,0,VALID,24.015,VALID,347,VALID,0,
2008-12-04, 03:01:04,VALID,1002.45,VALID,0,VALID,95.1321,VALID,0.100563,VALID,24.0345,VALID,347,VALID,0,
2008-12-04, 03:02:04,VALID,1002.5,VALID,0,VALID,95.1016,VALID,0,VALID,24.015,VALID,347,VALID,0,
2008-12-04, 03:03:04,VALID,1002.46,VALID,0,VALID,95.1093,VALID,0,VALID,24.015,VALID,347,VALID,0,
2008-12-04, 03:04:04,VALID,1002.49,VALID,0,VALID,95.0635,VALID,0.100563,VALID,23.9742,VALID,347,VALID,0,
2008-12-04, 03:05:04,VALID,1002.5,VALID,0,VALID,95.0406,VALID,0,VALID,23.9761,VALID,347,VALID,0,
2008-12-04, 03:06:04,VALID,1002.51,VALID,0,VALID,95.0101,VALID,0.100563,VALID,23.9566,VALID,347,VALID,0.291016,
2008-12-04, 03:07:04,VALID,1002.53,VALID,0,VALID,95.0024,VALID,0.100563,VALID,23.8964,VALID,347,VALID,0.207813,
2008-12-04, 03:08:04,VALID,1002.53,VALID,0,VALID,95.0101,VALID,0,VALID,23.8982,VALID,347,VALID,0,
2008-12-04, 03:09:04,VALID,1002.51,VALID,0,VALID,95.0635,VALID,0,VALID,23.9195,VALID,16,VALID,0.384766,
2008-12-04, 03:10:04,VALID,1002.51,VALID,0,VALID,95.0558,VALID,0,VALID,23.8982,VALID,16,VALID,0.299609,
2008-12-04, 03:11:04,VALID,1002.5,VALID,0,VALID,95.0711,VALID,0,VALID,23.8575,VALID,16,VALID,0.336328,
2008-12-04, 03:12:04,VALID,1002.49,VALID,0,VALID,95.0864,VALID,0,VALID,23.8769,VALID,16,VALID,0.342969,
2008-12-04, 03:13:04,VALID,1002.5,VALID,0,VALID,95.094,VALID,0,VALID,23.8982,VALID,16,VALID,0.175,
2008-12-04, 03:14:04,VALID,1002.5,VALID,0,VALID,95.1779,VALID,0,VALID,23.8964,VALID,16,VALID,0.323828,
2008-12-04, 03:15:04,VALID,1002.5,VALID,0,VALID,95.155,VALID,0,VALID,23.8964,VALID,16,VALID,0.364844,
2008-12-04, 03:16:04,VALID,1002.52,VALID,0,VALID,95.1321,VALID,0,VALID,23.8964,VALID,16,VALID,0.334766,
2008-12-04, 03:17:04,VALID,1002.52,VALID,0,VALID,95.1169,VALID,0,VALID,23.8787,VALID,16,VALID,0.154297,
2008-12-04, 03:18:04,VALID,1002.57,VALID,0,VALID,95.0864,VALID,0,VALID,23.8787,VALID,16,VALID,0.178125,
2008-12-04, 03:19:04,VALID,1002.57,VALID,0,VALID,95.0787,VALID,0,VALID,23.8593,VALID,16,VALID,0,
2008-12-04, 03:20:04,VALID,1002.57,VALID,0,VALID,95.0635,VALID,0,VALID,23.8398,VALID,16,VALID,0.0390625,
2008-12-04, 03:21:04,VALID,1002.58,VALID,0,VALID,95.094,VALID,0,VALID,23.8185,VALID,16,VALID,0.260156,
2008-12-04, 03:22:04,VALID,1002.6,VALID,0,VALID,95.0787,VALID,0,VALID,23.8185,VALID,16,VALID,0.241016,
2008-12-04, 03:23:04,VALID,1002.61,VALID,0,VALID,95.0864,VALID,0,VALID,23.8398,VALID,16,VALID,0,
2008-12-04, 03:24:04,VALID,1002.6,VALID,0,VALID,95.1016,VALID,0,VALID,23.7991,VALID,16,VALID,0,
2008-12-04, 03:25:04,VALID,1002.59,VALID,0,VALID,95.094,VALID,0,VALID,23.7991,VALID,16,VALID,0,
2008-12-04, 03:26:04,VALID,1002.6,VALID,0,VALID,95.1093,VALID,0,VALID,23.8203,VALID,16,VALID,0,
2008-12-04, 03:27:04,VALID,1002.58,VALID,0,VALID,95.094,VALID,0.100563,VALID,23.8009,VALID,16,VALID,0,
2008-12-04, 03:28:04,VALID,1002.6,VALID,0,VALID,95.094,VALID,0,VALID,23.7991,VALID,16,VALID,0,
2008-12-04, 03:29:04,VALID,1002.62,VALID,0,VALID,95.1627,VALID,0,VALID,23.7991,VALID,16,VALID,0,
2008-12-04, 03:30:04,VALID,1002.66,VALID,0,VALID,95.1855,VALID,0,VALID,23.8398,VALID,16,VALID,0,
2008-12-04, 03:31:04,VALID,1002.71,VALID,0,VALID,95.1245,VALID,0.100563,VALID,23.7991,VALID,16,VALID,0,
2008-12-04, 03:32:04,VALID,1002.71,VALID,0,VALID,95.0864,VALID,0,VALID,23.7814,VALID,16,VALID,0,
2008-12-04, 03:33:04,VALID,1002.74,VALID,0,VALID,95.155,VALID,0,VALID,23.8009,VALID,16,VALID,0,
2008-12-04, 03:34:04,VALID,1002.73,VALID,0,VALID,95.1627,VALID,0,VALID,23.8009,VALID,16,VALID,0,
2008-12-04, 03:35:04,VALID,1002.73,VALID,0,VALID,95.1855,VALID,0,VALID,23.8009,VALID,16,VALID,0,
2008-12-04, 03:36:04,VALID,1002.76,VALID,0,VALID,95.1703,VALID,0,VALID,23.7796,VALID,16,VALID,0,
2008-12-04, 03:37:04,VALID,1002.75,VALID,0,VALID,95.1855,VALID,0,VALID,23.7991,VALID,14,VALID,0,
2008-12-04, 03:38:04,VALID,1002.78,VALID,0,VALID,95.2771,VALID,0,VALID,23.8593,VALID,331,VALID,0.33125,
2008-12-04, 03:39:04,VALID,1002.76,VALID,0,VALID,95.2466,VALID,0,VALID,23.8575,VALID,332,VALID,0.112109,
2008-12-04, 03:40:04,VALID,1002.78,VALID,0,VALID,95.2542,VALID,0,VALID,23.9,VALID,332,VALID,0.0121094,
2008-12-04, 03:41:04,VALID,1002.74,VALID,0,VALID,95.2389,VALID,0,VALID,23.8982,VALID,332,VALID,0.129688,
2008-12-04, 03:42:04,VALID,1002.73,VALID,0,VALID,95.2237,VALID,0,VALID,23.9,VALID,332,VALID,0.192969,
2008-12-04, 03:43:04,VALID,1002.71,VALID,0,VALID,95.2923,VALID,0,VALID,23.9389,VALID,332,VALID,0.441797,
2008-12-04, 03:44:04,VALID,1002.73,VALID,0,VALID,95.1703,VALID,0,VALID,23.9195,VALID,332,VALID,0.540234,
2008-12-04, 03:45:04,VALID,1002.73,VALID,0,VALID,95.1093,VALID,0,VALID,23.9,VALID,332,VALID,0.425,
2008-12-04, 03:46:04,VALID,1002.73,VALID,0,VALID,95.1169,VALID,0,VALID,23.8611,VALID,332,VALID,0.336719,
2008-12-04, 03:47:04,VALID,1002.76,VALID,0,VALID,95.1398,VALID,0,VALID,23.8611,VALID,336,VALID,0.505469,
2008-12-04, 03:48:04,VALID,1002.76,VALID,0,VALID,95.1093,VALID,0,VALID,23.8203,VALID,336,VALID,0.206641,
2008-12-04, 03:49:04,VALID,1002.77,VALID,0,VALID,95.1016,VALID,0,VALID,23.8027,VALID,337,VALID,0.440234,
2008-12-04, 03:50:04,VALID,1002.76,VALID,0,VALID,95.1016,VALID,0,VALID,23.7814,VALID,343,VALID,0.414063,